Location: Marcé
(47.5801°N, 0.3280°W)
Time: 20:14:11
(UTC+01:00)

Explorer 7 - Pass Details

Date: 07 December 2021
Orbit: 483 x 674 km, 50.3° (Epoch: 17 January)

Event Time Altitude Azimuth Distance (km) Brightness Sun altitude
Rises 09:43:38 0° 288° (WNW) 2,730 9.8 7.9°
Reaches altitude 10° 09:45:57 10° 289° (WNW) 1,802 8.9 8.2°
Maximum altitude 09:50:02 80° 17° (NNE) 531 6.9 8.7°
Drops below altitude 10° 09:53:53 10° 105° (ESE) 1,705 10.4 9.1°
Sets 09:56:01 0° 106° (ESE) 2,568 11.3 9.3°
